Location: Carrières
(48.9495°N, 2.0407°E)
Time: 16:42:13
(UTC+00:00)

Tiros 1 - Pass Details

Date: 24 April 2024
Orbit: 624 x 657 km, 48.4° (Epoch: 18 May)

Event Time Altitude Azimuth Distance (km) Brightness Sun altitude
Rises 21:01:09 0° 192° (SSW) 2,940 - -17.5°
Reaches altitude 10° 21:04:32 10° 167° (SSE) 2,027 - -17.9°
Maximum altitude 21:06:52 14° 137° (SE) 1,784 - -18.1°
Drops below altitude 10° 21:09:12 10° 107° (ESE) 2,022 - -18.4°
Sets 21:12:34 0° 81° (E) 2,927 - -18.8°
